Location: Crescent
(42.8242°N, 73.7329°W)
Time: 08:08:33
(UTC+00:00)

Explorer 7 - Pass Details

Date: 13 November 2024
Orbit: 455 x 597 km, 50.3° (Epoch: 09 December)

Event Time Altitude Azimuth Distance (km) Brightness Sun altitude
Exits shadow 11:10:21 - 297° (WNW) 1,957 9.0 -6.8°
Reaches altitude 10° 11:10:45 10° 300° (WNW) 1,819 8.8 -6.7°
Maximum altitude 11:14:25 29° 2° (N) 1,049 8.1 -6.1°
Drops below altitude 10° 11:18:13 10° 63° (ENE) 1,893 10.2 -5.4°
Sets 11:20:46 0° 75° (ENE) 2,813 11.4 -5.0°
